Location: Unspecified
(42.3650°N, 71.1030°W)
Time: 16:27:36
(UTC+00:00)

Tiros 1 - Pass Details

Date: 26 June 2024
Orbit: 624 x 656 km, 48.4° (Epoch: 13 July)

Event Time Altitude Azimuth Distance (km) Brightness Sun altitude
Rises 10:15:03 0° 287° (WNW) 2,923 10.1 9.9°
Reaches altitude 10° 10:17:55 10° 270° (W) 2,018 9.2 10.4°
Maximum altitude 10:21:10 19° 225° (SW) 1,516 8.6 10.9°
Drops below altitude 10° 10:24:26 10° 181° (S) 2,024 9.5 11.5°
Sets 10:27:19 0° 163° (SSE) 2,936 10.5 12.0°
